Theta_e
281 280 279 279 279 278 278 278 278 278 278 278 278 278 278 279 278 278 279 279 279 279 279 278 278 278 277 278 277 277 277 277 277 277 276 276 276 276 277 277 276 277 277 277 277 277 277 277 278 278 279 279 280 280 281 282 282 282 283 283 282 282 281 280 279 279 282 283 284 284 285 285 285 285 285 286 285 285 286 284 284 284 284 285 285
279 278 279 279 278 278 278 277 277 277 278 278 278 277 277 277 277 277 277 277 278 278 278 278 278 277 277 277 276 276 277 277 277 277 276 276 276 278 277 277 276 276 276 276 277 278 277 277 277 277 278 278 279 279 280 280 281 281 281 282 282 282 282 281 280 280 279 281 282 284 283 285 284 285 285 286 285 285 284 285 284 283 284 284 284
278 278 278 278 277 277 277 277 277 277 277 277 276 277 277 276 277 276 276 276 276 277 276 276 276 276 276 276 276 276 276 275 276 276 276 276 276 276 276 276 276 276 276 276 276 276 276 276 276 277 278 277 278 278 279 279 280 280 280 281 281 282 282 282 281 280 279 280 281 281 282 283 283 284 284 285 285 285 285 285 285 284 284 284 284
277 277 278 277 276 277 277 276 277 276 276 276 276 276 276 276 276 276 276 275 275 275 275 275 275 275 275 274 274 274 275 275 275 275 275 275 275 275 275 275 276 276 276 276 276 276 276 276 276 276 277 276 277 277 278 278 278 279 279 280 280 281 281 282 282 281 280 280 281 281 282 282 283 284 284 284 284 284 284 285 284 284 284 284 283
277 277 277 276 276 276 276 276 276 276 275 275 275 275 275 275 275 275 275 274 274 274 274 274 273 273 273 273 273 273 274 274 274 274 274 274 275 275 275 275 275 275 275 275 277 276 276 276 276 276 276 276 276 277 277 277 278 278 278 279 279 280 281 281 281 281 280 279 280 281 281 282 282 283 283 283 284 284 284 283 284 284 284 283 283
277 277 276 276 276 276 275 275 275 275 275 275 275 275 275 274 274 274 274 273 272 272 272 272 272 272 272 272 272 272 272 273 272 272 273 273 273 273 273 274 274 274 274 275 275 275 275 276 276 276 276 276 276 277 277 277 277 278 278 278 278 279 279 279 280 280 280 279 280 279 281 280 280 281 282 282 282 282 283 284 283 283 283 283 283
276 276 276 275 275 275 275 274 274 274 274 274 274 273 273 273 273 272 272 271 271 271 271 271 271 271 271 271 271 271 271 271 271 271 271 272 272 272 272 273 273 273 274 274 274 275 275 275 275 275 275 275 276 276 276 277 277 277 277 278 278 278 278 278 279 279 279 279 279 279 279 280 280 280 281 282 282 282 282 282 282 284 283 282 283
275 275 275 275 274 274 274 274 274 274 273 273 273 272 272 271 271 271 270 270 270 270 270 270 270 270 270 270 270 270 270 269 270 270 270 271 272 272 272 272 272 272 272 273 273 273 273 274 274 274 275 275 275 275 276 276 277 277 278 278 278 278 277 278 278 278 278 278 278 278 279 279 279 279 280 278 279 280 280 280 280 281 282 283 282
275 274 274 274 274 273 273 274 273 272 272 271 271 270 270 270 269 269 269 269 269 269 269 269 268 268 269 268 268 268 268 268 269 269 270 271 272 272 272 271 271 271 271 271 272 272 272 273 273 274 275 277 278 279 279 279 278 277 277 278 278 278 278 278 278 278 277 277 277 278 278 278 278 278 278 277 277 279 281 281 280 282 282 282 283
274 273 273 273 273 272 272 272 271 271 271 270 269 269 268 268 268 267 267 267 267 268 267 267 267 267 266 266 267 266 267 267 269 272 274 272 272 271 271 271 271 271 271 271 271 272 272 272 273 275 276 277 277 278 278 279 279 278 277 277 277 277 277 277 278 278 278 277 277 277 276 276 277 278 278 278 279 280 280 280 280 281 282 281 282
272 271 272 272 271 271 271 271 270 269 269 268 267 267 267 266 266 266 265 265 265 266 266 266 265 265 265 265 265 265 265 266 270 273 274 275 273 272 271 271 271 271 271 270 270 270 271 272 272 273 273 274 273 276 277 278 278 279 280 280 280 278 277 277 277 278 278 277 278 278 277 277 278 279 279 279 280 279 280 280 280 281 280 279 279
271 270 270 270 271 270 269 268 267 267 266 266 266 264 264 263 263 263 263 264 264 265 264 265 264 264 264 264 264 264 264 267 270 272 273 274 274 272 272 271 271 270 270 270 270 270 270 270 270 271 271 271 271 272 273 274 275 276 277 278 279 280 280 278 277 277 278 277 278 278 279 278 279 279 279 279 279 279 279 280 280 280 280 279 280
269 269 269 269 268 268 267 266 265 264 264 263 262 262 262 263 262 262 262 262 263 263 263 263 263 264 263 263 263 263 263 266 269 272 273 274 275 274 271 271 270 270 270 270 269 269 269 269 269 269 270 272 272 270 270 270 273 275 276 277 277 279 279 280 281 278 278 277 276 277 278 278 279 279 280 280 281 279 279 279 279 280 280 280 280
268 268 267 268 267 266 265 263 263 263 263 262 262 261 261 261 261 261 261 262 262 262 261 262 262 262 262 262 262 262 262 265 270 272 273 273 274 273 271 270 270 269 269 269 268 268 268 268 268 268 270 270 271 271 271 271 271 272 272 272 273 274 277 278 279 279 279 277 276 276 278 279 278 279 280 281 280 279 280 280 280 280 279 279 281
267 267 266 266 265 264 265 263 262 262 261 261 260 260 260 260 261 261 261 261 261 260 260 260 261 261 261 261 261 261 261 267 270 271 272 273 273 273 270 269 268 268 268 268 268 268 268 268 268 268 269 269 270 271 270 271 271 272 272 272 273 273 274 274 275 276 277 278 278 277 278 278 278 278 279 279 279 280 280 280 281 281 282 283 283
266 266 265 264 264 265 263 262 261 260 261 260 259 260 260 260 260 261 260 260 260 260 260 259 260 260 260 260 260 260 261 267 269 270 271 272 273 269 268 267 267 267 267 267 268 268 268 268 268 268 268 268 271 274 273 272 271 270 270 270 271 272 273 276 278 278 277 277 277 278 278 280 282 281 282 281 281 281 281 281 281 281 280 279 279
265 265 264 264 263 263 263 262 260 259 260 259 259 259 260 259 259 259 259 260 260 259 259 259 259 259 259 259 259 259 260 264 268 270 271 272 271 267 267 267 267 266 266 267 267 268 268 268 268 268 268 268 271 274 275 274 271 270 271 271 272 272 273 274 277 279 280 280 281 281 282 282 283 283 284 284 283 283 282 280 279 280 278 276 277
264 263 263 262 263 263 262 260 260 259 258 258 258 260 259 258 258 258 258 258 258 258 259 259 259 258 259 258 259 259 259 263 268 269 270 271 270 267 267 267 266 266 267 267 268 268 268 270 270 269 268 268 273 275 276 274 272 272 271 271 270 270 271 272 273 274 277 278 279 279 280 281 281 282 283 283 284 283 280 278 280 281 279 279 277
263 262 263 263 262 262 260 260 260 258 258 259 257 258 258 258 258 258 258 257 258 258 258 258 258 258 258 258 261 260 259 262 266 268 269 270 269 267 267 267 266 266 267 267 268 268 268 269 271 272 271 272 276 276 276 275 272 272 271 271 270 270 271 272 271 271 272 272 273 274 275 277 277 277 278 281 281 281 279 278 278 277 276 277 278
263 262 262 262 261 260 259 258 258 257 258 258 257 258 258 257 257 258 257 257 257 257 257 257 257 257 258 258 258 259 259 259 261 267 269 270 271 268 268 267 266 266 267 267 267 268 268 268 270 273 275 275 276 276 276 277 273 272 272 271 270 270 272 272 272 272 272 273 273 274 274 275 276 276 276 277 277 278 278 279 279 278 277 276 277
262 261 261 260 259 259 258 257 257 257 256 257 257 257 257 258 258 257 257 257 256 257 256 257 257 257 258 258 258 259 259 259 260 267 269 270 271 271 268 268 268 267 267 267 267 267 268 268 269 272 275 276 276 276 277 277 277 274 273 272 272 273 275 273 274 276 274 275 275 275 274 274 274 274 274 275 276 277 278 279 279 280 279 278 277
261 259 259 259 258 256 255 255 256 255 255 255 255 256 256 256 256 256 256 256 255 256 256 256 256 257 257 258 258 258 260 262 261 265 268 270 271 272 269 269 270 269 269 269 269 269 269 269 270 272 275 276 276 276 277 277 277 274 274 277 278 278 275 275 275 274 273 272 272 271 271 271 271 271 272 273 274 276 277 277 278 279 279 281 280
259 258 258 257 256 255 254 254 255 254 254 254 254 255 255 254 254 254 254 254 255 255 255 255 256 256 257 257 258 258 259 259 264 263 268 270 271 272 273 272 274 271 270 269 269 270 271 271 271 274 275 276 276 276 277 278 277 275 278 278 278 278 277 273 273 272 271 270 269 269 269 269 269 270 270 271 272 273 274 275 277 278 279 280 280
257 256 255 255 254 254 253 253 253 252 254 254 253 254 254 254 254 254 254 254 254 255 255 255 255 255 255 256 257 258 259 259 263 267 267 270 272 273 274 274 274 271 271 270 271 271 270 270 271 275 276 276 277 277 277 277 275 277 277 277 277 276 273 272 272 271 271 270 270 269 269 269 269 269 269 271 271 272 273 273 274 276 277 278 278
254 253 253 251 252 252 252 252 252 252 253 253 253 254 254 253 254 253 253 254 254 254 255 254 254 255 255 256 257 259 260 261 261 264 269 270 272 273 273 274 274 275 271 271 271 271 273 276 276 276 276 277 277 277 275 275 276 276 276 276 275 273 272 271 270 269 268 267 267 267 267 268 268 269 270 271 271 272 272 272 273 274 275 277 277
253 252 251 251 252 251 251 252 252 253 252 253 253 254 254 254 254 254 253 254 254 254 254 254 255 255 256 258 260 261 263 263 264 264 266 268 269 271 273 274 274 274 274 273 275 276 276 276 277 277 276 275 273 272 271 272 275 276 276 275 271 270 268 267 267 266 265 266 266 266 266 268 268 269 270 270 270 270 270 271 271 272 272 273 273
253 252 252 252 251 251 251 252 253 253 251 252 252 253 254 254 254 254 254 253 254 254 255 256 256 257 258 260 261 263 263 264 265 265 266 266 267 268 269 269 272 273 271 270 272 271 272 273 272 274 274 275 275 275 274 273 271 270 269 268 268 268 267 267 266 266 266 266 266 267 267 268 269 269 269 269 269 270 270 271 270 270 271 272 272
253 252 251 250 251 251 252 255 255 253 253 252 253 253 254 254 254 254 254 254 255 256 257 257 258 259 260 261 261 262 264 265 266 266 267 267 269 270 270 271 271 271 271 271 272 272 272 273 272 271 270 269 268 267 267 266 267 267 266 266 266 267 268 270 270 268 268 269 269 269 269 269 268 269 269 269 269 269 271 270 270 270 271 271 271
253 250 250 249 251 253 252 252 252 253 253 252 253 254 254 254 255 255 257 258 258 257 257 258 259 261 262 263 264 264 265 265 266 270 270 272 271 270 270 270 271 271 273 275 273 272 270 269 267 266 265 264 263 263 263 263 264 264 264 264 265 266 266 266 266 266 267 267 267 267 267 268 268 269 269 269 270 270 272 271 271 271 271 272 271
250 250 250 250 251 251 252 251 251 253 252 253 253 253 258 262 261 260 260 264 267 269 269 265 266 267 266 267 267 265 264 266 271 272 272 273 273 274 274 274 275 274 274 274 272 268 266 264 263 261 261 261 261 261 262 262 263 263 264 266 266 265 266 266 266 266 267 267 267 267 267 268 268 268 269 269 269 270 271 272 270 271 271 271 271
251 251 251 251 253 253 252 251 252 251 252 253 252 253 253 256 261 264 265 265 266 268 269 269 270 270 267 265 266 270 270 271 271 272 272 272 273 274 274 274 274 273 273 269 266 264 261 260 260 260 261 261 262 262 263 263 263 263 264 265 265 265 266 266 266 267 267 267 267 268 268 268 267 268 267 268 268 269 269 270 270 270 270 271 271
252 252 252 251 253 253 252 252 252 252 252 252 253 252 252 253 254 260 263 264 265 266 267 267 268 268 268 268 266 266 268 270 271 271 272 273 273 272 272 272 271 270 270 268 261 259 259 259 260 260 261 260 261 261 261 261 262 262 262 262 263 264 265 265 266 267 267 267 267 267 268 268 268 268 269 269 269 269 269 270 270 270 270 271 271
251 250 251 252 253 254 253 252 252 252 251 252 252 251 252 252 252 253 256 261 262 263 264 265 266 266 267 268 269 268 269 269 270 271 272 271 271 270 271 269 268 268 267 261 258 258 258 258 258 259 259 259 259 259 260 260 260 260 261 261 262 263 263 264 266 266 266 267 267 267 268 268 268 269 269 269 269 268 269 269 270 270 270 270 271
251 251 250 252 252 252 252 251 252 252 252 252 252 252 252 252 252 253 253 253 255 257 260 262 264 265 266 267 267 268 268 269 270 271 271 270 270 269 268 263 265 265 264 258 257 256 257 257 258 258 258 258 258 258 259 259 259 260 260 261 261 262 262 264 264 265 266 267 267 268 269 269 269 268 268 268 269 269 269 270 270 270 270 271 271
249 252 255 255 252 252 253 254 253 252 252 252 252 253 253 254 254 254 252 252 252 253 253 254 259 263 262 264 265 267 268 268 270 270 269 269 268 268 265 257 256 256 257 255 256 256 257 257 257 257 257 257 257 258 258 258 259 259 259 260 260 261 262 263 265 266 267 268 268 269 269 269 269 269 269 269 269 269 269 270 271 271 271 271 272
251 252 252 252 252 253 253 252 253 252 251 252 253 253 255 253 252 252 253 253 253 253 253 254 253 259 263 264 264 266 267 268 269 269 268 267 267 265 256 255 255 255 256 256 255 256 257 257 257 257 257 257 258 258 258 258 259 259 259 260 261 262 262 263 265 266 267 268 269 270 271 270 270 270 270 270 270 270 270 270 271 272 273 273 273
250 250 252 252 251 252 251 251 251 252 255 255 254 253 253 252 252 251 252 251 252 253 253 254 254 254 257 256 259 263 266 267 268 267 265 265 265 259 253 254 254 255 255 255 256 256 256 256 256 256 257 257 257 258 258 258 259 259 261 261 262 262 263 264 266 267 267 268 269 269 270 270 270 270 270 270 270 271 272 272 273 273 274 275 275
249 252 251 250 252 252 252 251 253 256 253 252 251 250 250 251 250 251 252 251 253 253 252 252 254 253 253 254 258 258 259 265 265 262 260 260 257 255 255 255 255 254 255 255 256 256 256 256 256 256 257 257 257 258 258 259 260 260 261 261 262 262 266 266 266 266 267 267 268 268 269 270 271 271 271 270 270 270 271 272 273 273 273 274 274
250 253 255 256 257 255 253 252 252 251 250 251 250 251 251 251 250 250 250 249 250 251 252 252 252 253 253 255 255 258 262 259 256 254 255 255 255 254 254 254 255 255 255 255 256 256 256 256 257 257 257 258 258 259 259 260 261 261 262 262 263 263 264 264 265 265 266 266 267 267 268 269 270 271 271 271 271 271 271 272 273 273 273 272 272
252 251 253 256 253 255 255 254 252 250 250 249 249 249 250 250 250 250 250 250 250 251 251 251 252 252 253 254 256 261 260 257 254 253 254 254 254 254 254 255 255 255 255 255 256 256 256 256 257 257 258 258 259 260 261 261 262 263 263 263 263 264 264 265 265 265 265 266 266 266 267 268 270 271 271 271 272 272 272 272 272 272 272 272 271
247 251 253 255 254 252 252 252 250 249 248 249 250 249 249 250 251 251 250 251 251 251 251 251 252 252 254 257 263 264 259 255 253 253 253 254 254 254 254 254 255 255 256 256 256 257 257 257 257 258 258 259 260 261 262 263 263 264 264 264 264 264 265 265 265 265 266 266 266 266 267 268 269 270 271 272 274 274 273 273 273 272 271 271 271
247 247 248 249 251 250 249 250 249 252 250 250 249 249 250 251 250 250 250 251 251 251 251 251 251 252 255 261 262 263 258 253 252 253 253 253 253 253 254 254 254 255 256 256 257 257 257 257 258 258 259 260 261 262 263 264 264 264 264 265 265 265 264 265 265 265 265 265 265 266 266 268 269 269 270 272 273 273 273 273 273 272 270 269 269
248 248 248 249 248 248 248 249 249 247 248 248 249 252 252 251 250 250 250 250 251 251 251 251 251 252 253 258 258 258 252 251 253 252 252 253 253 253 253 253 254 255 256 256 257 258 258 258 258 258 259 260 261 263 263 264 265 265 265 265 265 265 265 265 265 265 265 265 265 265 266 267 267 268 268 269 269 270 270 270 270 270 270 270 270
248 249 249 249 249 249 249 248 248 249 248 251 252 252 251 250 249 249 249 249 250 250 250 251 251 251 252 253 254 252 250 251 251 251 252 253 253 253 253 253 253 254 254 255 256 257 257 257 257 258 259 260 262 263 264 265 266 266 266 266 266 265 265 265 264 265 265 264 264 265 265 266 267 267 267 268 267 267 267 268 268 268 268 268 269
247 248 248 247 247 247 247 248 248 248 250 250 249 248 250 248 249 249 249 249 250 250 250 251 251 251 251 250 250 250 250 250 252 252 251 252 252 252 252 252 253 253 253 254 255 256 257 257 258 259 259 260 262 263 264 265 266 267 267 267 266 266 265 265 265 265 265 264 264 264 265 265 265 266 266 267 267 267 267 267 267 268 267 266 266
247 247 248 247 247 248 248 246 249 248 248 247 248 247 248 247 247 247 249 249 250 250 250 250 249 249 250 249 250 250 250 250 250 251 252 251 252 252 252 252 252 252 253 254 254 255 256 257 258 258 259 260 261 263 264 265 267 267 268 268 268 267 267 266 266 266 265 264 264 264 264 264 264 265 266 265 266 266 266 266 267 266 265 266 267
246 247 248 248 247 248 248 249 248 247 247 247 248 247 248 248 248 249 250 251 251 250 250 249 248 248 248 248 249 249 250 250 250 251 251 251 251 251 251 252 252 252 253 253 254 254 255 256 256 257 258 260 261 262 264 265 266 267 268 268 269 268 268 267 266 265 264 264 264 264 264 263 264 264 264 264 264 264 265 265 265 266 266 267 267
246 247 247 248 247 247 247 247 248 251 249 249 248 248 249 248 248 249 247 248 248 248 249 248 247 247 249 248 249 249 250 250 250 251 251 251 251 251 251 251 251 252 252 253 253 254 254 255 255 256 258 259 260 262 263 264 265 267 267 268 268 268 268 267 265 264 264 263 263 263 263 263 263 263 263 264 263 264 263 263 264 265 265 266 267
246 247 247 247 247 248 247 248 248 248 248 247 247 248 248 247 247 247 248 248 248 248 247 248 247 247 247 248 249 249 249 250 249 250 250 250 251 251 251 251 252 251 252 252 252 253 253 254 255 256 257 258 260 261 262 264 265 266 267 268 268 268 267 267 266 265 264 263 262 262 262 262 262 263 263 263 263 264 263 264 264 264 265 265 265
247 247 247 248 249 249 248 248 247 247 247 246 247 247 247 247 247 247 247 247 247 247 247 246 247 247 247 248 249 249 249 249 249 250 250 250 250 250 251 251 251 251 251 251 252 253 253 253 254 255 256 258 259 260 261 263 264 266 267 268 268 268 268 267 266 266 265 262 261 261 261 261 262 262 263 263 263 263 263 263 263 264 264 263 263
247 248 247 248 248 248 248 247 247 247 246 246 246 246 247 247 247 247 246 247 247 247 247 246 246 246 247 247 248 248 248 249 249 249 250 250 250 250 251 250 251 251 251 252 252 252 253 253 254 255 256 257 258 259 261 262 263 265 267 268 268 269 269 268 267 266 266 264 261 261 261 261 260 261 262 262 262 262 263 263 262 262 262 262 262
Wind_Speed
4 4 4 4 6 6 5 5 5 3 4 4 5 4 4 4 4 4 4 6 5 6 6 6 6 6 7 7 7 7 7 8 6 6 6 6 5 5 5 6 7 7 7 9 6 6 7 7 8 6 5 8 8 7 6 7 7 7 6 6 7 6 7 8 12 15 10 6 11 10 7 6 10 5 10 8 7 7 8 7 7 7 8 8 9
4 4 4 4 5 4 4 4 3 4 5 5 5 4 4 5 4 4 5 4 5 5 6 5 5 6 6 6 6 6 6 6 7 6 7 8 7 5 7 7 7 8 7 8 8 6 7 9 9 8 6 8 9 8 7 7 7 8 7 7 7 9 6 8 11 12 16 5 7 10 8 5 11 6 8 11 8 6 8 8 6 7 8 8 7
2 3 4 5 4 4 4 5 4 5 5 4 5 5 4 4 4 5 5 5 4 5 5 6 6 6 6 6 7 7 7 7 6 7 8 8 9 9 8 8 9 9 10 9 9 8 9 9 10 8 7 9 10 9 7 8 7 8 10 8 8 9 8 7 9 14 15 13 6 9 8 6 9 10 5 8 8 7 9 9 8 6 6 7 8
2 3 4 5 4 5 5 4 6 5 5 5 5 4 4 4 4 4 3 4 5 4 4 4 4 5 5 6 6 6 7 7 7 7 7 8 9 10 9 8 8 8 9 10 10 9 10 11 10 9 8 10 10 10 7 7 8 8 9 9 9 10 9 7 9 11 13 15 11 8 8 8 10 9 6 6 9 8 8 9 5 7 7 6 7
3 3 4 5 5 6 5 5 5 5 5 4 4 4 4 5 5 5 5 7 6 6 6 5 5 6 7 7 7 6 6 7 7 7 7 6 8 8 9 8 9 10 10 10 10 10 10 11 11 10 9 11 12 10 8 9 8 9 10 9 9 9 9 9 10 10 12 16 15 9 7 9 8 10 8 10 9 8 8 9 8 8 8 7 7
4 5 4 5 4 5 4 5 4 4 4 4 4 4 5 5 5 5 5 7 6 5 6 6 6 6 5 6 6 6 5 6 7 8 8 7 8 9 9 9 10 10 10 10 10 10 10 11 11 10 10 12 13 12 10 10 10 10 10 10 10 9 10 11 11 11 12 15 14 15 8 9 9 8 8 7 9 11 10 8 6 6 8 8 8
4 5 5 5 5 4 4 3 3 2 3 3 3 3 4 4 4 4 5 4 5 6 5 6 5 5 6 5 6 7 7 7 7 7 7 7 9 9 10 10 10 9 9 11 10 10 11 10 12 11 12 12 14 13 13 12 11 12 11 11 10 10 11 11 11 12 12 14 15 13 12 9 8 11 7 6 9 10 11 10 10 7 6 8 9
5 5 5 5 4 3 1 0 1 1 1 2 2 3 3 3 3 4 3 5 4 5 6 6 6 6 6 6 6 7 7 7 7 7 7 8 8 9 9 10 11 11 11 11 11 11 11 12 11 11 11 12 13 13 12 12 12 13 12 10 10 11 12 11 12 11 12 12 13 14 12 11 9 6 5 3 6 9 6 7 12 12 9 6 7
5 4 4 4 3 2 2 1 2 1 2 2 3 3 3 3 4 4 4 4 5 5 6 7 8 7 7 8 8 7 7 7 6 7 10 10 8 10 9 10 11 11 12 11 11 10 11 10 11 10 12 19 24 21 20 19 15 14 13 11 11 12 12 11 11 11 11 12 14 13 13 13 11 10 8 6 8 11 9 5 9 11 8 8 9
5 4 3 3 2 2 2 2 2 2 3 4 4 5 5 5 5 4 5 5 5 5 5 6 5 7 8 8 7 6 6 5 10 17 15 11 12 11 11 12 11 11 12 13 12 10 10 10 11 20 22 22 22 24 24 25 25 20 16 14 13 12 13 12 12 11 11 12 13 13 14 14 12 10 10 9 7 6 8 7 11 12 10 9 10
3 3 3 2 2 2 3 3 3 4 4 4 5 5 5 5 5 5 5 5 6 6 6 7 6 7 7 8 8 6 6 6 16 17 18 20 14 13 13 13 13 13 13 14 14 14 12 12 12 14 16 17 16 21 21 22 22 24 26 25 22 17 14 15 14 12 12 13 13 13 14 17 16 11 11 10 9 8 9 9 10 10 11 9 13
4 3 3 2 3 3 3 3 3 3 3 4 4 3 4 4 4 4 5 5 5 5 5 5 6 6 6 7 7 7 7 11 17 19 20 20 18 14 13 13 12 12 12 13 13 13 14 13 12 11 11 13 14 14 17 22 24 25 26 26 26 27 26 19 16 14 13 13 14 14 13 14 14 12 10 8 9 9 9 9 10 11 12 12 10
4 3 3 3 2 2 3 3 3 3 3 3 3 3 4 4 4 5 5 4 4 5 6 7 6 6 7 8 9 8 8 13 18 20 20 21 21 18 12 12 12 13 13 14 14 13 13 13 13 11 11 19 15 12 12 13 18 23 24 24 24 25 24 27 27 21 16 16 15 16 15 14 14 12 8 9 8 12 9 11 9 10 11 12 12
3 3 2 2 2 3 4 3 3 3 3 3 3 4 4 4 4 3 3 4 4 4 4 6 6 6 7 8 8 8 8 13 20 21 21 22 21 19 13 13 12 13 13 13 12 13 13 13 13 13 13 13 13 14 13 14 14 13 13 13 13 17 22 24 25 25 21 16 16 17 15 11 13 13 12 9 13 13 12 12 10 12 11 13 12
3 2 2 3 3 3 5 3 3 3 3 3 3 4 4 4 4 4 3 5 5 5 6 6 6 5 7 7 9 10 8 18 20 22 22 22 22 19 12 12 11 11 12 12 13 13 13 13 14 14 14 14 13 17 17 17 15 14 13 12 13 13 12 11 11 11 12 12 14 16 18 17 17 18 17 16 15 15 15 16 15 14 13 13 14
3 2 3 3 3 3 3 2 3 3 3 3 4 5 4 4 5 5 4 4 3 4 4 4 6 7 6 7 9 11 10 18 21 21 22 22 23 13 11 11 12 12 12 12 12 12 12 13 13 14 15 15 18 24 22 18 15 16 16 14 14 14 14 15 21 22 18 16 15 16 15 16 20 17 16 14 12 13 14 14 14 14 14 14 15
2 3 2 2 2 2 2 2 2 3 3 4 4 4 5 5 4 3 5 5 6 5 5 5 5 7 8 7 9 12 11 16 21 22 22 23 18 11 11 10 11 12 12 12 12 12 12 13 13 14 15 15 21 26 26 25 17 16 16 15 11 10 12 12 18 23 24 25 27 29 31 32 31 32 33 35 25 19 15 14 14 12 14 15 15
3 2 2 1 1 1 1 1 2 3 3 4 5 4 4 4 4 3 5 7 7 5 6 7 5 5 8 9 8 11 12 15 21 22 22 22 19 13 11 10 10 12 13 13 11 11 13 22 21 16 17 17 25 28 28 22 14 13 12 13 15 14 14 13 13 14 22 25 27 28 29 28 28 28 28 29 29 22 14 16 14 12 13 12 15
3 3 2 1 0 0 0 1 1 3 4 4 4 5 5 5 4 4 4 4 7 6 6 7 7 6 6 9 13 14 12 15 20 21 23 22 17 11 10 9 7 9 12 12 12 12 12 15 24 22 20 21 29 26 26 21 14 11 12 12 13 13 12 12 13 13 12 12 12 14 16 18 17 15 15 26 27 24 17 17 14 14 13 13 12
3 3 2 1 0 0 0 1 2 3 4 4 4 4 4 5 4 5 5 4 6 6 6 6 9 9 7 8 9 9 12 12 13 23 22 22 22 14 9 9 10 12 11 11 11 10 11 11 14 22 27 28 27 27 26 27 18 14 12 12 13 14 12 13 13 14 14 14 14 13 14 12 11 11 11 14 15 15 16 15 14 13 13 15 14
3 2 2 0 0 1 1 1 3 3 3 5 4 4 4 5 6 5 6 6 5 7 7 7 8 9 8 8 8 9 9 12 13 21 21 22 23 19 10 10 9 10 10 11 10 10 8 9 11 18 27 27 27 27 26 26 24 16 13 11 12 16 20 14 14 19 14 12 11 10 8 8 9 9 10 12 11 10 11 14 15 15 15 15 13
3 2 1 0 1 1 2 2 3 3 4 4 5 5 4 4 5 6 5 6 7 8 7 7 8 9 9 8 8 10 10 15 13 17 21 22 22 24 14 11 13 12 12 10 9 9 8 7 9 17 27 28 27 27 28 27 29 18 16 24 29 29 20 14 11 8 8 9 9 10 9 9 8 9 9 10 9 10 11 13 13 15 15 15 16
2 1 0 1 1 2 2 3 4 3 4 4 4 6 5 5 5 4 6 6 7 8 7 7 8 9 10 8 7 9 9 9 17 15 20 22 23 22 23 19 23 15 12 12 12 12 8 11 13 23 28 29 28 29 29 30 24 15 25 27 27 29 23 11 10 10 10 11 11 11 10 10 10 9 10 10 9 10 11 12 14 15 15 13 14
2 1 1 1 2 3 3 4 4 3 4 4 4 5 6 5 5 5 5 5 7 8 6 6 7 8 10 11 9 8 8 8 12 19 18 23 22 23 23 24 24 15 13 12 11 12 13 14 16 28 30 30 30 27 26 25 19 26 27 27 27 25 14 11 10 11 12 11 11 11 10 9 11 11 10 8 10 10 11 11 12 13 14 14 14
2 1 2 3 3 3 3 3 4 4 4 4 4 5 6 5 6 4 4 5 6 7 8 5 7 8 9 10 11 9 8 8 8 12 21 22 23 23 23 25 24 25 17 12 13 12 19 29 32 31 29 28 29 27 22 21 25 25 26 26 25 11 10 9 10 10 10 11 12 13 11 11 10 11 10 11 11 11 10 10 11 13 13 15 16
2 3 3 3 4 3 3 4 4 4 4 4 4 5 5 6 6 6 5 6 6 7 8 6 7 8 9 9 10 10 10 9 9 9 10 14 15 21 25 25 25 25 24 19 25 30 29 29 32 32 28 23 16 11 9 11 21 25 26 24 12 11 10 10 11 10 11 11 13 13 11 10 12 11 11 11 11 11 8 11 10 10 11 11 13
3 3 4 4 3 3 3 4 4 4 4 4 4 4 5 5 6 6 5 6 7 6 7 7 7 8 9 10 10 10 11 9 9 9 9 9 10 12 13 13 19 21 14 11 14 15 20 22 17 20 17 23 22 21 19 18 14 12 9 9 9 9 9 8 9 11 12 11 11 10 10 10 10 11 11 9 11 9 9 10 12 12 11 12 13
5 4 4 3 3 3 4 5 5 4 4 4 4 5 5 5 6 7 6 6 7 8 7 7 8 9 9 11 11 10 10 8 8 8 9 9 10 10 10 11 10 9 11 12 12 13 10 10 11 7 7 7 8 7 7 7 8 9 9 9 10 11 13 19 19 13 12 11 12 13 12 10 12 11 11 12 13 10 10 11 12 12 10 10 12
4 4 4 2 4 3 4 4 4 4 4 4 5 5 6 6 7 8 7 8 8 8 7 9 10 11 9 8 10 8 9 9 7 14 16 20 18 14 12 11 11 11 15 24 17 11 9 9 8 9 7 8 7 8 8 8 9 9 10 10 9 10 9 8 9 11 10 11 11 12 11 12 11 12 10 12 11 12 8 10 11 12 12 12 15
3 4 3 3 4 3 3 3 3 3 4 5 5 5 8 13 10 8 6 12 18 20 16 10 9 9 7 8 8 10 9 10 20 25 23 24 25 25 24 25 24 20 22 27 18 10 9 9 9 8 8 7 7 7 8 8 8 9 9 11 11 9 9 9 9 10 10 11 12 10 12 11 12 10 11 11 10 10 11 13 12 9 11 10 14
4 4 3 4 4 3 3 3 4 3 4 4 4 6 7 6 12 16 15 13 15 17 17 19 20 18 12 9 11 20 21 22 22 21 22 22 24 25 25 24 25 24 24 17 9 7 8 7 8 8 7 7 8 8 8 9 10 9 9 9 10 9 11 9 9 9 10 9 11 12 11 11 12 12 12 11 11 11 9 9 10 11 10 12 12
5 5 5 3 4 4 3 3 3 4 4 4 4 4 6 9 10 7 10 12 12 15 16 16 15 15 17 16 13 9 15 19 20 21 22 23 22 23 23 23 23 22 21 17 8 7 7 7 8 9 10 10 10 10 10 10 10 10 10 12 11 10 10 11 12 11 11 13 10 12 10 12 10 11 10 10 11 11 10 10 10 10 10 11 13
5 4 4 3 3 4 3 3 3 3 4 4 4 3 5 5 8 12 9 7 9 11 12 13 15 17 18 18 19 15 15 16 20 20 21 21 21 20 21 21 19 17 16 9 6 7 7 7 8 7 8 9 9 10 9 10 9 11 9 10 11 12 11 13 17 14 12 11 13 11 11 10 13 13 12 10 11 10 10 10 11 11 12 11 12
5 4 4 4 3 3 3 3 3 3 3 4 4 4 4 5 5 5 10 13 8 5 7 13 16 18 17 18 17 17 17 18 19 19 19 18 19 19 20 14 16 14 12 7 7 7 7 7 7 7 7 8 8 8 9 9 9 8 11 10 11 10 12 11 11 11 11 12 11 13 13 12 11 10 10 9 10 11 12 12 11 11 11 11 12
4 4 6 4 4 4 3 3 3 3 3 4 4 4 5 4 4 5 6 8 10 12 8 7 10 16 15 13 15 18 19 18 17 17 18 17 17 19 17 9 10 8 6 3 4 5 7 8 8 9 8 9 9 9 9 9 9 9 9 10 11 10 9 11 10 12 12 12 12 12 11 11 10 10 10 10 10 10 10 10 9 9 11 12 12
4 3 3 3 3 3 3 3 3 4 4 4 4 3 4 4 5 5 5 6 8 9 10 6 4 11 17 14 16 18 20 18 16 17 16 17 17 17 10 10 9 8 8 7 5 6 6 6 7 8 8 8 8 9 9 9 9 9 9 9 11 11 11 10 13 12 13 12 12 13 13 11 10 10 9 10 11 11 10 11 11 12 12 12 13
4 3 3 2 3 3 4 4 4 4 5 4 3 3 4 4 5 5 6 6 7 7 8 9 7 5 6 6 10 16 20 17 15 15 15 15 16 9 4 5 7 8 9 9 8 8 8 7 7 8 8 8 9 9 9 9 10 10 11 10 10 10 11 11 11 13 12 12 12 13 14 12 10 9 8 9 9 9 9 9 10 13 14 14 15
4 3 4 3 3 4 4 4 5 6 4 1 3 3 3 4 4 5 6 6 6 7 9 9 8 8 8 8 9 8 11 11 12 9 8 9 8 5 5 5 6 6 8 8 8 8 9 9 8 8 9 9 9 9 9 10 10 10 10 11 11 10 17 16 16 14 13 12 12 13 13 13 10 9 8 9 9 9 9 10 10 11 10 9 7
3 5 7 8 6 4 4 3 3 2 2 3 3 4 5 4 4 5 5 5 5 6 7 7 8 8 8 7 8 10 9 6 6 7 8 7 6 6 5 5 6 6 6 7 8 8 8 9 10 9 9 9 9 9 9 10 10 10 10 10 11 11 12 11 12 12 12 12 12 13 12 13 11 9 8 9 9 10 11 11 11 10 8 7 3
3 3 4 6 4 4 3 4 2 2 5 2 4 3 3 4 4 4 5 4 5 5 6 7 8 8 8 8 8 8 7 7 7 7 8 8 7 7 5 6 7 7 8 8 8 8 9 9 9 9 10 10 10 10 9 10 9 10 9 9 10 11 12 11 11 12 12 12 12 13 12 12 13 11 9 8 9 9 10 10 10 8 7 6 4
4 4 3 4 5 3 2 2 3 3 3 4 5 4 4 5 4 5 4 5 5 5 6 7 7 7 7 11 17 15 6 6 7 7 7 7 8 8 7 7 7 8 8 8 8 8 8 9 9 9 10 10 10 10 10 10 10 9 9 10 10 11 11 11 11 11 12 12 12 12 12 13 12 12 11 9 9 9 9 9 9 7 6 5 4
5 4 3 3 4 2 2 5 5 4 3 4 3 4 5 5 4 3 5 4 5 6 6 6 7 6 10 18 14 16 8 5 5 7 7 7 7 7 7 6 6 6 7 8 8 9 9 9 9 9 10 10 11 11 11 11 11 10 10 10 10 11 11 11 11 12 12 12 12 12 12 12 12 11 12 12 9 7 7 7 6 5 5 4 2
5 4 4 4 3 4 4 5 3 3 3 4 4 4 5 4 3 5 4 5 5 6 6 7 7 6 7 11 12 12 5 5 5 6 6 6 7 7 7 7 7 7 7 8 8 8 8 9 9 9 9 10 11 11 11 11 11 11 10 10 10 11 12 11 12 12 11 12 12 12 12 11 11 9 9 9 9 8 6 6 5 3 3 1 0
4 4 5 4 4 3 5 4 4 4 3 5 4 5 4 4 3 4 4 4 5 5 6 6 6 7 7 7 7 6 5 5 5 5 6 7 7 7 7 7 7 7 7 7 7 8 8 8 9 9 9 9 10 11 11 11 11 11 10 10 10 11 11 12 12 12 12 11 11 12 12 12 10 9 9 8 9 8 8 7 6 4 2 1 2
4 4 4 3 3 4 5 4 4 4 5 4 3 3 4 3 4 4 4 5 6 6 6 6 6 6 7 6 5 6 6 6 7 7 6 6 7 7 7 7 7 8 8 8 7 8 8 9 9 9 10 10 10 10 10 11 11 11 10 10 9 10 11 12 11 11 11 10 8 9 10 10 10 9 9 9 8 7 6 7 6 6 5 4 3
4 4 5 3 4 6 5 4 5 3 4 3 4 5 4 4 4 4 5 5 6 6 6 6 5 5 6 6 5 6 6 6 6 6 7 6 6 7 7 7 7 7 7 7 8 8 8 8 9 9 10 10 11 11 10 11 11 11 11 10 9 9 10 10 10 10 10 10 9 9 8 8 9 9 10 9 8 7 7 7 6 6 5 5 4
4 4 3 4 4 6 6 5 4 5 4 4 4 4 4 4 5 4 5 6 6 7 6 6 6 6 5 5 5 6 6 6 6 6 7 7 7 7 7 7 7 7 7 7 7 8 8 9 9 9 10 11 11 11 11 10 10 10 11 10 9 10 10 10 10 10 9 10 9 8 8 8 9 9 10 9 8 8 8 7 7 7 6 5 5
4 4 3 4 4 5 5 4 5 5 5 5 3 4 5 5 4 5 5 5 6 6 6 6 6 6 6 5 5 5 5 6 6 7 6 7 7 7 7 7 7 7 8 8 7 7 7 8 9 9 10 10 11 10 11 11 10 9 10 10 10 11 13 13 9 10 9 9 9 9 9 8 8 8 9 10 9 8 8 7 7 6 6 6 5
5 4 4 4 5 6 6 6 6 5 5 4 3 4 5 4 4 4 5 5 5 6 6 6 6 6 5 5 5 6 5 7 6 6 6 6 7 7 7 7 7 7 7 8 8 8 8 8 8 9 9 9 9 10 10 10 11 10 10 10 14 18 16 16 11 10 12 9 8 9 9 8 8 8 9 9 9 8 8 8 7 7 7 7 7
4 4 4 5 6 6 6 5 5 5 5 5 4 5 4 4 5 5 5 5 5 6 6 6 6 6 5 5 7 6 5 6 6 7 7 7 7 7 7 7 7 7 7 8 8 8 8 8 8 9 9 9 9 9 10 10 10 11 10 12 18 18 16 15 13 16 12 8 9 8 8 8 9 8 8 8 8 8 8 8 8 7 7 7 6
5 4 5 5 5 5 5 5 5 5 5 5 5 5 5 5 5 5 4 5 6 7 6 6 6 5 5 5 6 5 6 6 6 6 7 7 7 7 7 7 8 8 8 8 8 8 8 8 8 9 9 9 9 9 9 10 10 11 15 17 18 18 17 15 11 13 16 11 8 8 8 9 8 9 9 8 7 7 8 8 8 7 7 6 6
Wind_Direction
97 86 81 67 70 57 45 47 42 39 58 43 48 36 27 28 25 9 7 18 9 7 6 1 360 356 353 354 355 351 351 348 348 344 341 333 328 316 315 322 318 314 314 312 315 314 309 303 303 300 299 297 292 290 285 280 280 269 263 256 259 246 237 246 259 272 270 215 267 277 269 282 285 238 268 265 266 265 257 257 256 253 252 253 256
64 71 68 69 66 62 56 60 52 46 55 37 36 27 17 18 11 13 22 1 11 0 2 355 355 353 354 349 348 347 343 344 341 344 338 334 329 328 325 321 314 309 310 305 308 307 301 303 301 302 299 292 291 292 290 291 283 282 275 265 261 267 236 254 263 268 281 255 262 276 277 246 270 256 256 276 266 259 262 262 249 242 249 252 255
83 87 84 74 75 76 65 49 47 42 43 30 24 18 12 10 14 18 6 0 1 2 352 352 347 348 348 345 344 342 342 339 342 342 336 334 328 326 327 322 317 315 314 308 308 307 302 297 294 298 298 293 291 288 290 288 284 280 281 275 273 270 263 244 265 276 279 280 246 269 275 270 262 276 249 260 269 263 270 267 258 253 244 247 251
125 97 88 74 76 73 59 44 45 35 33 18 16 7 11 11 6 16 4 2 359 350 352 346 350 346 345 342 342 340 339 338 339 338 332 329 324 319 320 317 311 307 304 305 307 307 301 299 296 297 296 288 286 288 286 281 281 281 279 280 274 275 271 260 253 265 279 286 273 255 271 276 276 274 267 251 267 269 259 268 256 256 252 246 245
100 90 101 91 69 70 54 44 43 29 21 12 5 7 7 10 9 9 7 3 360 353 354 1 353 355 350 342 338 340 335 334 330 327 324 319 314 312 312 311 309 304 301 300 299 299 297 292 296 300 299 294 293 290 286 281 279 278 277 278 278 277 276 270 267 264 274 277 283 269 255 262 261 275 276 279 273 263 262 259 258 253 255 241 246
100 98 95 92 73 64 52 41 35 22 14 5 8 7 11 12 10 7 8 356 351 354 350 352 350 341 343 334 333 330 334 332 326 321 318 317 315 310 307 304 302 300 298 296 295 294 293 294 295 297 295 292 293 294 293 289 286 278 275 274 275 275 276 275 270 270 269 273 278 286 263 265 273 255 267 256 273 279 273 265 256 241 248 257 241
97 92 88 86 75 61 51 32 29 27 9 8 8 18 19 11 12 3 355 353 342 346 345 340 340 336 329 332 332 336 332 327 323 316 316 315 310 306 304 301 297 296 293 292 292 292 291 292 293 294 293 292 291 291 295 291 286 283 279 279 274 274 273 272 274 273 273 277 279 274 280 268 255 274 256 241 254 260 274 286 279 255 239 241 263
95 92 91 85 85 85 88 111 102 62 34 39 34 31 19 9 8 354 351 349 350 347 342 339 335 334 327 335 333 332 326 327 322 319 312 310 308 305 304 302 301 298 294 293 292 290 290 290 288 288 286 285 286 288 287 287 285 280 278 277 277 275 273 272 271 270 271 273 275 283 278 281 273 254 279 264 274 272 244 253 271 277 266 240 233
103 104 99 106 128 143 147 116 99 65 58 46 41 19 10 4 359 356 354 352 352 340 345 340 331 331 335 332 329 328 323 317 322 322 319 315 310 304 301 298 296 294 292 289 287 287 289 286 286 285 288 291 290 290 290 288 287 286 283 281 281 278 277 275 272 270 268 268 275 277 281 279 272 277 270 246 234 256 270 226 259 262 271 273 262
119 119 120 128 126 114 102 77 62 52 40 28 20 7 0 359 354 354 358 355 344 344 340 334 332 333 330 325 327 323 317 314 315 314 315 313 312 309 305 302 300 299 300 301 298 295 292 292 293 297 298 297 296 295 292 289 286 284 286 287 283 279 276 275 273 269 269 270 268 275 277 275 275 268 271 261 247 254 263 259 263 272 272 264 267
120 131 130 127 112 85 78 57 46 39 28 18 7 3 357 353 352 351 357 350 345 344 335 331 339 329 322 321 319 315 309 308 310 313 312 311 309 304 303 302 302 301 300 301 302 304 305 305 304 305 304 301 297 295 295 294 293 290 287 284 282 279 280 278 274 273 273 270 273 271 269 272 271 267 264 272 266 258 258 257 258 267 268 271 274
132 122 116 98 81 77 69 62 46 35 23 12 1 355 351 350 351 351 345 344 340 331 327 330 327 324 317 316 311 308 303 305 309 310 308 308 307 304 302 300 300 299 299 298 300 303 303 304 303 303 300 299 301 305 302 298 295 292 288 285 281 278 275 275 280 279 274 276 275 270 272 268 275 270 267 268 273 271 261 259 257 256 262 260 259
116 109 96 103 105 95 72 57 38 26 14 5 351 348 355 345 347 345 339 331 324 329 327 324 318 319 316 310 308 301 297 305 308 308 307 308 308 308 301 299 297 296 298 299 300 301 303 303 302 298 299 299 298 293 290 288 289 290 290 290 285 281 279 276 273 274 283 282 283 281 273 282 283 279 277 278 281 276 272 265 262 258 257 259 258
110 120 122 120 96 72 58 39 26 9 1 354 352 347 348 343 331 318 316 323 323 316 314 311 310 313 314 308 302 301 295 304 307 308 309 309 309 308 301 301 298 297 299 300 300 298 297 298 299 299 299 299 298 299 298 293 290 285 283 280 280 283 285 285 285 282 278 274 273 271 275 274 276 286 284 290 288 284 283 275 270 268 264 261 265
128 145 115 88 68 57 42 27 9 354 349 347 346 340 336 325 327 324 324 321 321 317 318 316 310 308 308 305 301 299 294 305 308 309 309 309 308 309 305 303 299 296 295 294 293 293 294 295 296 297 298 298 299 298 298 298 297 296 294 291 289 287 282 278 274 266 265 261 262 263 267 266 266 269 272 269 260 261 263 268 271 271 272 272 267
132 103 86 70 63 54 39 12 353 343 338 338 337 329 327 323 324 321 316 306 292 298 298 297 304 306 304 302 301 298 299 306 308 308 308 309 310 310 306 299 296 294 294 292 292 293 293 294 297 296 296 295 295 295 293 293 293 292 288 282 279 276 274 275 281 281 277 273 272 274 277 277 278 278 277 274 266 262 262 263 263 262 264 263 261
111 103 104 87 70 52 26 3 335 333 329 330 324 322 324 322 316 313 311 307 311 309 302 303 303 303 303 301 300 298 296 305 306 306 308 309 311 303 298 295 295 296 293 293 292 293 293 294 292 292 292 291 291 293 293 293 288 282 277 276 277 282 291 292 289 289 287 282 279 278 277 279 280 280 279 278 278 278 278 271 259 251 251 255 256
140 126 126 114 83 70 10 346 323 322 324 317 312 310 308 296 294 307 306 310 308 301 304 302 295 295 297 297 296 295 295 301 305 305 306 306 305 303 298 289 282 291 294 291 292 292 294 293 292 286 286 285 288 291 293 294 287 287 294 301 300 295 293 292 290 289 290 292 291 291 290 289 289 288 285 282 280 279 279 276 279 273 261 250 255
157 147 147 129 135 110 334 330 316 314 306 301 302 303 304 299 297 296 283 287 290 299 299 298 297 292 284 287 293 292 290 296 302 302 302 303 303 295 288 281 269 280 293 293 288 281 271 269 275 283 288 290 294 296 295 295 291 284 282 277 278 276 276 275 276 278 274 271 271 274 274 277 280 281 287 289 288 289 287 282 281 277 280 276 277
152 139 149 135 125 110 323 319 303 301 295 296 295 289 293 299 295 298 294 285 293 297 295 294 296 295 293 287 285 282 287 289 294 298 299 300 300 296 287 287 284 284 278 272 277 269 259 260 273 279 289 293 293 293 294 294 291 283 276 271 271 275 273 272 267 267 268 264 267 263 267 272 275 280 283 284 281 276 277 280 281 274 268 270 268
142 145 131 122 228 283 305 300 295 289 282 286 291 293 292 292 298 297 298 297 291 296 297 296 292 291 290 283 282 281 276 285 289 296 297 298 298 298 287 282 279 276 277 276 266 262 257 255 262 274 287 291 293 294 293 291 289 284 276 269 266 272 280 276 274 274 277 279 280 285 286 289 286 283 284 283 277 273 271 273 273 271 266 261 256
137 130 131 122 272 293 289 289 276 273 283 290 297 291 281 280 286 290 290 295 299 296 299 297 293 290 288 282 279 281 280 281 286 291 293 295 295 295 295 287 288 285 282 279 283 277 260 242 257 280 289 290 290 289 289 287 285 287 284 282 285 291 295 291 291 295 293 292 289 287 286 283 281 277 274 274 272 270 266 266 264 265 266 263 261
127 124 120 235 274 278 280 279 283 287 286 281 284 288 288 289 283 283 290 295 291 293 295 293 293 293 292 287 280 278 279 274 283 286 291 295 296 296 295 296 297 297 293 289 284 282 274 278 276 281 286 287 286 285 285 288 292 291 294 299 301 301 301 307 306 299 291 286 283 280 278 277 276 274 273 273 270 270 275 276 278 280 278 274 271
114 115 200 248 265 277 272 277 275 276 276 281 280 283 290 285 284 279 281 283 292 293 291 290 292 292 296 296 288 279 274 271 276 287 293 294 298 301 303 303 302 295 291 286 289 287 285 280 277 280 284 284 286 293 300 306 305 303 302 299 298 299 297 291 284 282 281 280 278 275 272 266 269 272 270 268 274 275 275 275 274 269 270 274 273
130 194 230 249 260 260 276 270 274 272 270 269 281 283 286 287 294 277 271 284 279 284 287 285 284 288 290 289 292 289 280 271 268 274 289 297 301 304 306 304 303 302 298 289 279 278 284 288 292 295 298 303 306 308 307 300 297 298 297 296 298 298 296 291 292 290 284 279 277 277 274 269 265 269 270 273 276 276 276 274 267 268 267 265 269
176 217 232 243 250 258 278 280 270 263 263 257 252 260 271 286 283 289 281 273 270 274 283 283 278 279 281 286 290 291 291 289 286 283 281 284 288 295 299 299 298 299 297 295 297 296 296 293 290 290 293 294 291 283 273 280 292 297 298 300 300 294 287 286 280 279 274 274 275 275 275 275 274 271 268 266 265 265 267 271 274 269 269 273 274
198 215 238 242 257 252 257 273 276 269 264 262 258 263 268 268 271 274 270 273 273 268 271 274 277 276 278 283 288 292 294 291 290 290 286 288 287 287 290 285 282 281 279 273 274 275 275 275 275 280 287 294 298 300 299 300 300 296 290 286 282 280 281 276 276 277 277 275 276 269 271 271 275 277 276 269 268 266 264 270 272 270 271 269 271
197 218 229 230 247 246 251 262 267 275 267 267 279 280 265 255 261 259 259 261 270 275 268 270 272 275 279 282 283 285 289 293 297 297 296 290 294 298 296 297 301 305 299 292 286 282 286 292 291 307 306 298 295 295 298 302 297 300 297 296 291 288 285 287 287 280 276 276 275 278 276 276 273 272 274 271 269 266 262 261 261 263 259 262 259
200 216 229 228 246 243 241 251 263 270 282 268 253 247 266 269 264 265 241 229 237 246 250 251 250 263 262 276 286 263 301 305 304 307 307 312 312 310 309 309 306 298 298 306 314 328 329 320 323 319 326 318 313 303 304 302 298 294 290 285 280 279 277 269 274 276 276 276 273 274 273 270 269 266 261 261 256 261 254 259 258 262 259 250 255
193 226 224 224 243 246 257 261 263 269 272 284 283 276 254 273 274 272 273 279 277 277 279 278 285 293 292 291 304 306 309 307 309 311 313 314 316 314 311 308 310 314 320 326 327 324 330 326 319 318 314 314 307 305 301 298 296 297 290 294 292 284 282 280 275 279 278 277 276 275 273 273 271 269 268 269 271 263 262 269 273 270 271 267 268
201 224 227 238 238 243 249 266 269 267 268 273 278 289 302 286 290 290 287 287 288 288 294 296 299 302 307 311 310 307 307 309 311 314 318 319 315 316 319 323 326 330 332 330 336 337 330 323 313 308 308 309 311 312 314 311 309 305 303 304 299 295 298 288 286 282 282 280 280 275 272 270 271 269 266 264 266 266 260 245 252 257 254 262 264
197 217 216 230 248 257 254 252 262 266 270 269 278 294 300 312 309 294 306 307 300 301 304 308 309 313 315 314 312 304 310 315 321 322 322 323 329 331 330 333 339 337 336 350 347 335 327 324 324 324 327 324 322 323 319 317 315 315 312 310 306 304 302 301 303 300 292 287 279 278 273 270 264 265 262 264 266 267 265 262 254 256 259 264 267
194 214 218 228 239 249 259 254 257 257 271 282 285 286 298 305 314 319 320 316 310 308 319 321 318 315 318 320 318 318 322 326 326 327 333 341 340 338 339 347 344 346 353 357 341 332 331 326 321 322 322 317 317 318 315 310 307 306 305 301 301 302 299 296 298 290 285 279 278 270 268 263 264 264 263 259 262 262 262 261 262 261 263 261 264
194 198 210 218 232 245 240 243 250 259 256 267 266 279 274 277 292 300 314 322 323 302 313 323 321 322 320 321 324 328 332 332 331 337 347 346 343 344 349 343 339 351 357 342 334 327 323 318 316 314 310 306 304 305 302 302 300 298 299 296 292 292 290 287 287 286 282 284 281 277 273 270 262 263 261 259 258 261 262 260 258 257 252 253 259
194 215 221 225 221 239 245 255 256 262 263 261 267 273 271 278 295 303 306 304 308 316 321 325 317 317 315 320 328 332 333 332 333 345 348 346 346 350 346 335 341 342 348 325 316 312 315 319 316 316 317 313 310 308 304 303 302 300 298 300 297 294 295 298 297 296 298 293 290 285 274 269 264 258 260 262 262 261 260 261 260 258 261 261 258
197 206 218 231 239 241 253 249 253 252 255 264 253 254 282 299 296 289 286 286 294 301 303 306 289 303 308 320 328 331 330 327 336 349 348 347 351 358 347 340 334 332 329 326 320 311 305 302 306 306 308 304 303 300 298 299 297 296 293 294 299 300 302 301 303 302 303 302 297 297 291 278 269 264 262 259 260 262 261 260 259 259 255 254 252
195 213 218 225 218 239 247 246 247 245 260 258 266 300 291 283 280 276 277 284 290 288 293 306 313 294 299 288 315 325 319 320 342 347 346 346 350 351 313 315 316 321 325 327 326 323 319 311 304 299 300 301 300 298 298 297 297 297 298 297 294 297 296 296 303 306 306 305 308 309 305 290 275 265 261 265 264 263 266 269 269 273 277 279 264
193 208 216 220 234 239 241 240 243 257 269 297 288 274 274 272 267 267 278 283 285 297 308 309 310 314 319 319 322 310 297 319 339 333 333 339 340 341 335 325 319 318 316 316 318 316 313 310 309 306 304 303 301 303 302 299 299 299 301 301 302 297 306 309 310 308 307 307 309 313 314 305 286 270 265 264 268 271 270 272 279 284 288 313 337
203 225 230 243 248 223 219 229 243 257 273 271 271 267 272 270 272 278 275 272 283 294 292 295 301 307 309 313 319 300 303 341 341 340 338 340 335 330 322 320 318 317 313 311 313 315 311 311 311 310 305 304 303 302 300 298 298 299 301 304 306 307 311 314 314 315 313 314 315 314 310 312 302 280 262 262 266 267 271 277 282 285 288 297 310
196 208 239 248 249 271 272 269 264 267 266 266 265 258 262 267 270 270 273 277 288 289 285 292 297 296 304 314 296 311 345 340 338 331 330 329 333 332 332 328 330 325 324 321 320 318 315 311 310 311 309 307 306 304 303 301 301 301 303 308 314 316 316 317 316 316 316 316 314 315 313 314 316 302 269 255 259 263 270 276 278 275 275 276 271
193 201 202 233 241 246 264 259 251 253 250 250 253 260 260 262 263 265 272 279 284 283 285 282 280 288 295 301 318 334 357 338 324 326 322 324 325 328 330 328 327 325 323 321 319 317 313 313 313 313 312 310 309 309 310 310 310 309 310 314 319 321 320 318 317 317 318 319 319 316 317 320 316 319 307 279 261 263 264 266 271 271 268 275 272
185 193 208 222 239 245 240 248 246 252 255 262 266 259 261 265 263 267 273 283 282 285 288 285 282 287 297 313 323 336 347 326 318 317 319 321 319 318 317 315 312 313 317 319 319 318 317 317 314 314 314 315 317 316 318 318 319 318 315 317 321 326 325 324 322 321 322 321 321 319 319 318 319 320 323 327 317 300 283 276 267 262 257 260 263
186 198 202 210 212 217 224 235 236 238 254 248 256 258 262 267 270 273 281 279 280 285 284 289 295 296 297 309 325 333 332 314 312 314 307 311 310 312 312 312 313 310 310 308 310 310 311 310 310 311 312 313 314 315 318 317 317 317 314 315 321 328 328 327 325 326 326 325 325 322 321 319 323 319 322 326 327 324 319 319 316 316 309 304 108
192 197 199 209 214 226 231 225 235 236 235 246 257 262 267 272 276 280 274 278 277 273 272 277 285 297 300 311 320 325 317 322 318 314 312 312 310 308 309 309 313 314 314 313 312 314 311 310 309 308 306 308 311 314 314 316 320 320 319 321 325 328 331 332 330 329 329 326 323 325 327 325 323 328 328 329 335 334 337 340 343 346 355 17 81
189 195 203 213 224 225 240 231 227 233 242 251 261 265 263 262 268 268 267 273 272 271 271 272 279 286 294 303 314 316 316 315 313 314 310 307 306 304 304 308 313 317 317 315 316 316 313 313 311 312 314 314 314 316 317 318 323 325 323 325 330 333 336 334 329 324 323 323 318 317 324 325 330 333 332 333 334 338 339 345 342 350 358 5 36
193 194 204 212 226 232 232 233 230 227 231 233 242 256 261 260 253 256 266 265 269 274 274 276 277 276 282 294 300 307 308 310 306 305 304 304 301 301 301 304 308 310 309 311 312 314 312 312 314 314 315 314 316 316 320 319 323 328 328 327 335 337 334 334 330 328 329 330 330 328 325 325 333 333 338 337 336 343 344 352 359 6 2 6 16
190 195 210 218 225 234 234 229 228 231 228 234 232 241 253 252 253 259 262 270 273 276 279 282 282 283 285 293 299 303 304 307 306 309 306 302 301 301 303 306 309 310 312 311 309 309 312 312 313 313 312 312 314 316 319 321 321 328 332 332 336 345 344 343 338 334 332 332 331 332 338 338 340 338 342 345 348 349 351 357 356 3 3 11 7
189 196 215 223 228 236 241 236 239 242 238 238 243 247 251 253 261 262 264 270 274 275 277 277 276 278 287 291 293 293 296 293 296 295 298 297 299 298 303 307 311 312 313 312 312 310 310 311 311 313 312 314 317 319 318 320 319 325 333 334 338 345 349 350 346 343 339 340 335 339 340 343 347 349 348 349 351 350 357 355 353 359 5 7 19
186 199 220 225 227 230 233 234 236 235 236 236 248 259 259 267 265 263 265 268 270 272 268 276 281 281 281 281 287 289 289 295 297 299 298 296 298 300 302 306 310 312 312 312 312 313 311 310 311 310 309 309 313 314 316 319 322 321 329 334 336 342 351 356 356 352 351 349 345 344 344 345 348 354 356 356 354 357 1 1 4 5 11 23 30
197 206 219 227 231 234 232 231 238 243 241 239 242 255 258 258 265 265 266 271 273 272 269 264 269 277 283 292 295 294 297 298 298 299 298 299 298 301 304 308 311 312 313 309 309 310 311 309 311 310 311 310 311 312 314 316 320 321 323 331 334 342 351 357 357 357 1 355 352 348 346 347 349 351 355 359 357 4 9 9 9 13 18 26 31
205 216 224 228 232 234 228 232 241 240 237 238 236 243 251 251 252 261 267 268 268 270 271 266 269 274 275 268 277 282 288 286 284 287 292 296 301 304 306 309 312 313 309 306 307 308 309 311 312 311 311 310 312 311 313 315 317 319 321 333 339 345 352 0 2 0 1 3 353 352 354 355 355 355 354 356 0 5 17 21 21 20 21 22 22